Overview Statistics Trail Chart Weather Telemetry Raw packets
 

This is the latest recevied weather packets stored in our database for station/object KD8DNO-13. If no packets are shown the sender has not sent any weather packets the latest 10 day(s).

<< 104 105 106 107 108 109 110 >>
Time Temp. Humidity Pressure Rain* Wind** Luminosity Snow
1787783583 25° C 62% 1015.9 hPa 0 mm - - -
1787783284 25° C 63% 1015.9 hPa 0 mm - - -
1787782983 25° C 64% 1015.9 hPa 0 mm - - -
1787782684 25° C 62% 1015.9 hPa 0 mm - - -
1787782383 25.56° C 62% 1015.9 hPa 0 mm - - -
1787782083 25.56° C 62% 1015.9 hPa 0 mm - - -
1787781784 25.56° C 61% 1016.2 hPa 0 mm - - -
1787781483 25.56° C 63% 1016.2 hPa 0 mm - - -
1787781183 25.56° C 61% 1016.2 hPa 0 mm - - -
1787780883 26.11° C 60% 1016.2 hPa 0 mm - - -
1787780583 25.56° C 60% 1016.2 hPa 0 mm - - -
1787780284 26.11° C 60% 1016.2 hPa 0 mm - - -
1787779983 26.11° C 60% 1016.2 hPa 0 mm - - -
1787779684 26.11° C 61% 1016.2 hPa 0 mm - - -
1787779384 26.11° C 59% 1016.2 hPa 0 mm - - -
1787779084 26.67° C 57% 1016.2 hPa 0 mm - - -
1787778783 26.67° C 58% 1016.5 hPa 0 mm - - -
1787778483 26.11° C 58% 1016.5 hPa 0 mm - - -
1787778184 26.67° C 57% 1016.5 hPa 0 mm - - -
1787777883 26.67° C 58% 1016.5 hPa 0 mm - - -
1787777583 26.11° C 60% 1016.5 hPa 0 mm - - -
1787777283 26.67° C 57% 1016.5 hPa 0 mm - - -
1787776983 26.67° C 55% 1016.5 hPa 0 mm - - -
1787776683 26.67° C 59% 1016.9 hPa 0 mm - - -
1787776383 26.67° C 59% 1016.9 hPa 0 mm - - -

* Rain latest hour (hover to see other rain measurements)
** Current wind speed in m/s (hover to see current wind gust speed)